User: anonymous   Login
Location: Unspecified
(0.0000°N, 0.0000°E)
Time: 19:27:09
(UTC+02:00)
Language:

Resurs 01 Rocket - Orbit

View from above orbital plane
View from above orbital plane
View from above satellite
View from above satellite

Ground track
Ground track

The orbit data is extracted from the following two-line orbital elements,

1 23343U 94074B   17228.59644646 -.00000024  00000-0  41735-5 0  9995
2 23343  98.1486 266.2679 0005792 232.6081 278.6875 14.76705100225740
Epoch (UTC): 16 August 2017 14:18:52
Eccentricity: 0.0005792
inclination: 98.1486°
perigee height: 635 km
apogee height: 644 km
right ascension of ascending node: 266.2679°
argument of perigee: 232.6081°
revolutions per day: 14.76705100
mean anomaly at epoch: 278.6875°
orbit number at epoch: 22574

The dashed part of the orbit path shows where the satellite is in the earth's shadow,  

DLR